Change the Weather History Date:

Monday, October 17, 2011

  Actual Average Record
Temperature  
Mean Temperature 76 °F -  
Max Temperature 89 °F 75 °F 91 °F (1996)
Min Temperature 64 °F 55 °F 37 °F (2001)
Cooling Degree Days 11    
Growing Degree Days 26 (Base 50)    
Moisture  
Dew Point 60 °F    
Average Humidity 61    
Maximum Humidity 93    
Minimum Humidity 37    
Precipitation  
Precipitation 0.00 in - - ()
Sea Level Pressure  
Sea Level Pressure 29.82 in    
Wind  
Wind Speed 6 mph (South)    
Max Wind Speed 16 mph    
Max Gust Speed 23 mph    
Visibility 10 miles    
Events      
Averages and records for this station are not official NWS values.
T = Trace of Precipitation, MM = Missing Value Source: NWS Daily Summary

Daily Weather History Graph

Daily Weather History Graph

Search for Another Location

Airport or City:

Trip Planner

Search our weather history database for the weather conditions in past years. The results will help you decide how hot, cold, wet, or windy it might be!

Date:

Astronomy

Oct. 17, 2011 Rise Set
Actual Time 7:36 AM CDT 6:59 PM CDT
Civil Twilight 7:12 AM CDT 7:23 PM CDT
Nautical Twilight 6:44 AM CDT 7:51 PM CDT
Astronomical Twilight 6:16 AM CDT 8:19 PM CDT
Moon 10:57 PM CDT (10/17) 12:27 PM CDT (10/17)
Length of Visible Light 12h 11m
Length of Day
11h 22m
Waning Gibbous, 74% of the Moon is Illuminated
Oct 17
Waning Gibbous
Oct 19
Last Quarter
Oct 26
New
Nov 2
First Quarter
Nov 10
Full

Hourly Weather History & Observations

Time (CDT) Temp. Heat Index Dew Point Humidity Pressure Visibility Wind Dir Wind Speed Gust Speed Precip Events Conditions
12:53 AM 64.9 °F - 55.0 °F 70% 29.96 in 10.0 mi Calm Calm - N/A   Clear
1:53 AM 64.0 °F - 55.0 °F 73% 29.96 in 10.0 mi Calm Calm - N/A   Clear
2:53 AM 64.9 °F - 55.9 °F 73% 29.95 in 10.0 mi South 5.8 mph - N/A   Clear
3:53 AM 64.9 °F - 57.9 °F 78% 29.94 in 10.0 mi South 3.5 mph - N/A   Clear
4:53 AM 64.9 °F - 59.0 °F 81% 29.93 in 10.0 mi South 5.8 mph - N/A   Clear
5:53 AM 64.9 °F - 60.1 °F 84% 29.92 in 10.0 mi South 5.8 mph - N/A   Clear
6:53 AM 64.0 °F - 62.1 °F 93% 29.92 in 7.0 mi South 8.1 mph - N/A   Clear
7:53 AM 64.0 °F - 62.1 °F 93% 29.91 in 6.0 mi South 4.6 mph - N/A   Clear
8:53 AM 68.0 °F - 63.0 °F 84% 29.91 in 9.0 mi South 8.1 mph - N/A   Clear
9:53 AM 73.0 °F - 63.0 °F 71% 29.91 in 10.0 mi SSW 6.9 mph 16.1 mph N/A   Clear
10:53 AM 78.1 °F - 63.0 °F 60% 29.90 in 10.0 mi SSW 11.5 mph 20.7 mph N/A   Clear
11:53 AM 81.0 °F 81.9 °F 62.1 °F 52% 29.87 in 10.0 mi South 12.7 mph 23.0 mph N/A   Clear
12:53 PM 84.9 °F 85.4 °F 62.1 °F 46% 29.83 in 10.0 mi SSW 9.2 mph 18.4 mph N/A   Clear
1:53 PM 86.0 °F 85.7 °F 60.1 °F 41% 29.78 in 10.0 mi SSW 16.1 mph 21.9 mph N/A   Clear
2:53 PM 88.0 °F 87.9 °F 61.0 °F 40% 29.74 in 10.0 mi SSW 12.7 mph 20.7 mph N/A   Clear
3:53 PM 88.0 °F 87.6 °F 60.1 °F 39% 29.72 in 10.0 mi South 11.5 mph 20.7 mph N/A   Clear
4:53 PM 88.0 °F 87.1 °F 59.0 °F 37% 29.70 in 10.0 mi South 15.0 mph 20.7 mph N/A   Clear
5:53 PM 87.1 °F 86.7 °F 60.1 °F 40% 29.69 in 10.0 mi South 16.1 mph 21.9 mph N/A   Clear
6:53 PM 84.9 °F 85.0 °F 61.0 °F 44% 29.69 in 10.0 mi South 12.7 mph 18.4 mph N/A   Clear
7:53 PM 82.0 °F 82.4 °F 60.1 °F 47% 29.70 in 10.0 mi South 9.2 mph - N/A   Clear
8:53 PM 79.0 °F - 60.1 °F 52% 29.70 in 10.0 mi South 9.2 mph - N/A   Clear
9:53 PM 77.0 °F - 60.1 °F 56% 29.68 in 10.0 mi South 8.1 mph - N/A   Clear
10:53 PM 75.9 °F - 60.1 °F 58% 29.69 in 10.0 mi South 4.6 mph - N/A   Clear
11:53 PM 73.9 °F - 60.1 °F 62% 29.75 in 10.0 mi NW 3.5 mph - N/A   Clear